Tracking 35334 objects as of 13-Sep-2026
HD Live streaming from Space Station
objects crossing your sky now

DELTA 1 DEB

Track DELTA 1 DEB now!
10-day predictions


NORAD ID: 10730
Int'l Code: 1975-027E
Launch date: April 9, 1975
Source: United States (US)
Launch site: AIR FORCE WESTERN TEST RANGE (AFWTR)

Note: This is SATELLITE DEBRIS
Your satellite tracking list
Your tracking list is empty




NASA's NSSDC Master Catalog

Two Line Element Set (TLE):
1 10730U 75027E   26255.71361916  .00000008  00000-0  12198-3 0  9998
2 10730 114.9871 237.9927 0114621 246.7721 112.1239 13.94798293616374
Source of the keplerian elements: AFSPC